When you browse on this site, cookies collect data to enhance your experience and personalize the content and advertising you see.
Visit our Privacy Policy to learn more. By continuing to use the site, you agree to this use of cookies and data.
  • In Hungary
  • List of Countries
  • For 7 days
  • Water Temperature
  • Satellite Maps
  • Weather Map
  • News
  • Weather Widgets
  • user-avatar
    Login

    Hourly Weather Sébaco

    Today, 24 January, Thursday

    Time Temperature Precipitation Wind Pressure Humidity
    00:00 +20°C° 0 mm 2 mps 718 mmHg 93%
    01:00 +20°C° 0 mm 2 mps 717 mmHg 93%
    02:00 +20°C° 0 mm 2 mps 717 mmHg 93%
    03:00 +20°C° 0 mm 2 mps 717 mmHg 93%
    04:00 +20°C° 0 mm 2 mps 717 mmHg 93%
    05:00 +20°C° 0 mm 2 mps 717 mmHg 93%
    06:00 +20°C° 0 mm 2 mps 718 mmHg 92%
    07:00 +22°C° 0 mm 3 mps 718 mmHg 81%
    08:00 +25°C° 0 mm 3 mps 719 mmHg 70%
    09:00 +27°C° 0 mm 4 mps 719 mmHg 59%
    10:00 +29°C° 0 mm 4 mps 719 mmHg 53%
    11:00 +30°C° 0 mm 5 mps 719 mmHg 47%
    12:00 +33°C° 0 mm 5 mps 718 mmHg 40%
    13:00 +33°C° 0 mm 5 mps 718 mmHg 40%
    14:00 +33°C° 0 mm 5 mps 717 mmHg 40%
    15:00 +34°C° 0 mm 5 mps 716 mmHg 40%
    16:00 +32°C° 0 mm 4 mps 717 mmHg 48%
    17:00 +29°C° 0 mm 4 mps 717 mmHg 55%
    18:00 +27°C° 0 mm 3 mps 717 mmHg 62%
    19:00 +26°C° 0 mm 3 mps 717 mmHg 69%
    20:00 +24°C° 0 mm 3 mps 718 mmHg 75%
    21:00 +22°C° 0 mm 3 mps 718 mmHg 82%
    22:00 +22°C° 0 mm 3 mps 718 mmHg 85%
    23:00 +22°C° 0 mm 3 mps 718 mmHg 88%

    Tomorrow, 25 January, Friday

    Time Temperature Precipitation Wind Pressure Humidity
    00:00 +21°C° 0 mm 3 mps 718 mmHg 90%
    01:00 +21°C° 0 mm 3 mps 718 mmHg 90%
    02:00 +21°C° 0 mm 3 mps 718 mmHg 90%
    03:00 +21°C° 0 mm 3 mps 717 mmHg 89%
    04:00 +21°C° 0 mm 3 mps 718 mmHg 89%
    05:00 +21°C° 0 mm 3 mps 718 mmHg 88%
    06:00 +20°C° 0 mm 3 mps 718 mmHg 87%
    07:00 +23°C° 0 mm 4 mps 719 mmHg 77%
    08:00 +26°C° 0 mm 5 mps 720 mmHg 66%
    09:00 +28°C° 0 mm 6 mps 720 mmHg 56%
    10:00 +29°C° 0 mm 6 mps 720 mmHg 52%
    11:00 +32°C° 0 mm 6 mps 719 mmHg 48%
    12:00 +33°C° 0 mm 6 mps 719 mmHg 44%
    13:00 +33°C° 0 mm 6 mps 718 mmHg 44%
    14:00 +33°C° 0 mm 6 mps 717 mmHg 43%
    15:00 +33°C° 0 mm 6 mps 717 mmHg 43%
    16:00 +30°C° 0 mm 5 mps 717 mmHg 51%
    17:00 +28°C° 0 mm 4 mps 717 mmHg 59%
    18:00 +27°C° 0 mm 4 mps 717 mmHg 66%
    19:00 +26°C° 0 mm 3 mps 717 mmHg 71%
    20:00 +25°C° 0 mm 3 mps 718 mmHg 76%
    21:00 +24°C° 0 mm 3 mps 719 mmHg 82%
    22:00 +22°C° 0 mm 3 mps 719 mmHg 83%
    23:00 +22°C° 0 mm 3 mps 718 mmHg 85%

    Day after tomorrow, 26 January, Saturday

    Time Temperature Precipitation Wind Pressure Humidity
    00:00 +22°C° 0 mm 3 mps 718 mmHg 87%
    01:00 +21°C° 0 mm 3 mps 718 mmHg 87%
    02:00 +21°C° 0 mm 3 mps 718 mmHg 87%
    03:00 +21°C° 0 mm 3 mps 717 mmHg 87%
    04:00 +21°C° 0 mm 3 mps 717 mmHg 86%
    05:00 +21°C° 0 mm 3 mps 717 mmHg 86%
    06:00 +21°C° 0 mm 3 mps 718 mmHg 85%
    07:00 +23°C° 0 mm 4 mps 718 mmHg 76%
    08:00 +26°C° 0 mm 5 mps 719 mmHg 67%
    09:00 +27°C° 0 mm 5 mps 720 mmHg 58%
    10:00 +29°C° 0 mm 5 mps 719 mmHg 54%
    11:00 +30°C° 0 mm 5 mps 719 mmHg 49%
    12:00 +32°C° 0 mm 5 mps 718 mmHg 44%
    13:00 +33°C° 0 mm 5 mps 717 mmHg 45%
    14:00 +33°C° 0 mm 5 mps 716 mmHg 45%
    15:00 +33°C° 0 mm 4 mps 716 mmHg 46%
    16:00 +30°C° 0 mm 4 mps 716 mmHg 53%
    17:00 +28°C° 0 mm 3 mps 716 mmHg 60%
    18:00 +26°C° 0 mm 2 mps 716 mmHg 67%
    19:00 +25°C° 0 mm 2 mps 716 mmHg 73%
    20:00 +24°C° 0 mm 2 mps 717 mmHg 80%
    21:00 +23°C° 0 mm 2 mps 718 mmHg 87%
    22:00 +21°C° 0 mm 2 mps 718 mmHg 89%
    23:00 +21°C° 0 mm 2 mps 717 mmHg 91%

    27 January, Sunday

    Time Temperature Precipitation Wind Pressure Humidity
    00:00 +20°C° 0 mm 2 mps 717 mmHg 93%
    01:00 +20°C° 0 mm 2 mps 717 mmHg 94%
    02:00 +20°C° 0 mm 2 mps 716 mmHg 94%
    03:00 +20°C° 0 mm 2 mps 716 mmHg 95%
    04:00 +20°C° 0 mm 2 mps 716 mmHg 95%
    05:00 +19°C° 0 mm 2 mps 716 mmHg 95%
    06:00 +19°C° 0 mm 2 mps 717 mmHg 95%
    07:00 +23°C° 0 mm 2 mps 717 mmHg 83%
    08:00 +25°C° 0 mm 2 mps 718 mmHg 70%
    09:00 +28°C° 0 mm 2 mps 719 mmHg 57%
    10:00 +30°C° 0 mm 2 mps 719 mmHg 49%
    11:00 +34°C° 0 mm 2 mps 718 mmHg 41%
    12:00 +36°C° 0 mm 2 mps 718 mmHg 33%
    13:00 +36°C° 0 mm 2 mps 717 mmHg 33%
    14:00 +36°C° 0 mm 2 mps 716 mmHg 32%
    15:00 +36°C° 0 mm 2 mps 715 mmHg 32%
    16:00 +34°C° 0 mm 2 mps 715 mmHg 39%
    17:00 +30°C° 0 mm 2 mps 715 mmHg 47%
    18:00 +28°C° 0 mm 2 mps 715 mmHg 54%
    19:00 +26°C° 0 mm 1 mps 716 mmHg 62%
    20:00 +25°C° 0 mm 1 mps 716 mmHg 71%
    21:00 +21°C° 0 mm 0 mps 717 mmHg 79%
    22:00 +23°C° 0 mm 1 mps 717 mmHg 81%
    23:00 +22°C° 0 mm 1 mps 717 mmHg 82%

    28 January, Monday

    Time Temperature Precipitation Wind Pressure Humidity
    00:00 +22°C° 0 mm 1 mps 717 mmHg 84%
    01:00 +22°C° 0 mm 1 mps 716 mmHg 85%
    02:00 +21°C° 0 mm 1 mps 716 mmHg 87%
    03:00 +21°C° 0 mm 1 mps 716 mmHg 88%
    04:00 +21°C° 0 mm 1 mps 716 mmHg 88%
    05:00 +21°C° 0 mm 1 mps 716 mmHg 89%
    06:00 +21°C° 0 mm 1 mps 716 mmHg 89%
    07:00 +24°C° 0 mm 1 mps 717 mmHg 77%
    08:00 +26°C° 0 mm 2 mps 718 mmHg 64%
    09:00 +29°C° 0 mm 2 mps 719 mmHg 52%
    10:00 +31°C° 0 mm 2 mps 718 mmHg 47%
    11:00 +32°C° 0 mm 2 mps 718 mmHg 42%
    12:00 +35°C° 0 mm 3 mps 718 mmHg 38%
    13:00 +34°C° 0 mm 3 mps 717 mmHg 39%
    14:00 +34°C° 0 mm 3 mps 716 mmHg 40%
    15:00 +34°C° 0 mm 2 mps 715 mmHg 41%
    16:00 +31°C° 0 mm 2 mps 715 mmHg 48%
    17:00 +29°C° 0 mm 3 mps 715 mmHg 54%
    18:00 +28°C° 0 mm 3 mps 716 mmHg 60%
    19:00 +26°C° 0 mm 2 mps 716 mmHg 67%
    20:00 +25°C° 0 mm 2 mps 717 mmHg 74%
    21:00 +24°C° 0 mm 2 mps 717 mmHg 81%
    22:00 +23°C° 0 mm 2 mps 717 mmHg 84%
    23:00 +23°C° 0 mm 2 mps 717 mmHg 87%

    29 January, Tuesday

    Time Temperature Precipitation Wind Pressure Humidity
    00:00 +21°C° 0 mm 2 mps 717 mmHg 90%
    01:00 +21°C° 0 mm 2 mps 716 mmHg 91%
    02:00 +22°C° 0 mm 1 mps 716 mmHg 92%
    03:00 +22°C° 0 mm 1 mps 716 mmHg 93%
    04:00 +22°C° 0 mm 1 mps 716 mmHg 94%
    05:00 +21°C° 0 mm 1 mps 716 mmHg 95%
    06:00 +21°C° 0 mm 1 mps 717 mmHg 96%
    07:00 +23°C° 0 mm 2 mps 717 mmHg 82%
    08:00 +26°C° 0 mm 2 mps 718 mmHg 68%
    09:00 +28°C° 0 mm 2 mps 719 mmHg 55%
    10:00 +30°C° 0 mm 2 mps 718 mmHg 48%
    11:00 +32°C° 0 mm 2 mps 718 mmHg 42%
    12:00 +35°C° 0 mm 2 mps 718 mmHg 36%
    13:00 +35°C° 0 mm 2 mps 717 mmHg 37%
    14:00 +35°C° 0 mm 2 mps 716 mmHg 37%
    15:00 +34°C° 0 mm 2 mps 716 mmHg 38%
    16:00 +31°C° 0.1 mm 2 mps 716 mmHg 46%
    17:00 +30°C° 0.1 mm 2 mps 716 mmHg 54%
    18:00 +28°C° 0.1 mm 2 mps 716 mmHg 62%
    19:00 +26°C° 0 mm 2 mps 716 mmHg 68%
    20:00 +25°C° 0 mm 2 mps 717 mmHg 75%
    21:00 +24°C° 0 mm 1 mps 718 mmHg 81%
    22:00 +23°C° 0 mm 1 mps 718 mmHg 83%
    23:00 +23°C° 0 mm 1 mps 717 mmHg 84%
    Show more